OCN352 EDDF-KLSV

Flight info

Callsign OCN352
Flight time N/A
Altitude 34000
Route OBOKA5G/25C OBOKA Z28 DIBIR DCT BUDIP DCT MIMVA DCT GETNO DCT NIBOG DCT PIKIL/M081F350 DCT 5630N02000W 5730N03000W 5830N04000W 5930N05000W DCT URTAK/N0479F360 DCT KLIPS DCT 5581N/N0476F380 DCT 5290N DCT ZOMTA DCT KD90W DCT OCS DCT URIAH DCT WOXEK
Aircraft A339/H-SADE1E2E3GHIJ3J5M1P2RWXY/LB2D1

Departure

Time 2026-05-06 20:09
Airport Frankfurt Main Airport (EDDF)

Arrival

Time N/A
Airport Nellis Air Force Base (KLSV)
Time Latitude Longitude Altitude Speed Heading
2026-05-06 19:34 50.04973 8.57683 335 ft 0 kts 24°
2026-05-06 19:59 50.04969 8.57676 362 ft 1 kts 359°
2026-05-06 19:59 50.04957 8.57676 367 ft 1 kts
2026-05-06 19:59 50.04939 8.57675 362 ft 3 kts 14°
2026-05-06 19:59 50.04921 8.57667 362 ft 3 kts 18°
2026-05-06 20:00 50.04903 8.57656 362 ft 3 kts 59°
2026-05-06 20:00 50.04896 8.57637 364 ft 1 kts 94°
2026-05-06 20:00 50.04895 8.57655 362 ft 2 kts 94°
2026-05-06 20:00 50.04892 8.57682 366 ft 3 kts 102°
2026-05-06 20:01 50.04885 8.57708 366 ft 2 kts 111°
2026-05-06 20:01 50.04885 8.57709 366 ft 0 kts 111°
2026-05-06 20:04 50.04884 8.57712 363 ft 1 kts 111°
2026-05-06 20:04 50.04872 8.57754 369 ft 8 kts 114°
2026-05-06 20:04 50.04832 8.57865 371 ft 15 kts 126°
2026-05-06 20:05 50.04806 8.57905 370 ft 6 kts 145°
2026-05-06 20:05 50.04793 8.57974 365 ft 9 kts 97°
2026-05-06 20:05 50.04812 8.58103 365 ft 16 kts 71°
2026-05-06 20:05 50.04863 8.58299 369 ft 23 kts 68°
2026-05-06 20:06 50.04922 8.58559 368 ft 15 kts 71°
2026-05-06 20:06 50.04928 8.58617 365 ft 5 kts 88°
2026-05-06 20:06 50.04914 8.58654 371 ft 3 kts 123°
2026-05-06 20:06 50.04877 8.58687 370 ft 12 kts 151°
2026-05-06 20:07 50.04787 8.58744 372 ft 13 kts 161°
2026-05-06 20:07 50.04710 8.58770 378 ft 10 kts 178°
2026-05-06 20:07 50.04650 8.58761 376 ft 8 kts 188°
2026-05-06 20:07 50.04596 8.58729 376 ft 8 kts 209°
2026-05-06 20:08 50.04551 8.58668 377 ft 9 kts 224°
2026-05-06 20:08 50.04503 8.58598 376 ft 10 kts 226°
2026-05-06 20:08 50.04468 8.58502 376 ft 11 kts 250°
2026-05-06 20:08 50.04432 8.58356 378 ft 29 kts 248°
2026-05-06 20:09 50.04273 8.57687 369 ft 101 kts 250°
2026-05-06 20:09 50.03956 8.56361 363 ft 158 kts 250°
2026-05-06 20:09 50.03532 8.54622 751 ft 168 kts 249°
2026-05-06 20:09 50.03057 8.53014 1520 ft 169 kts 248°
2026-05-06 20:10 50.02612 8.51250 1953 ft 183 kts 253°
2026-05-06 20:10 50.02016 8.49385 2243 ft 203 kts 233°
2026-05-06 20:10 50.00854 8.48136 2775 ft 211 kts 200°
2026-05-06 20:10 49.99399 8.47708 3369 ft 212 kts 189°
2026-05-06 20:11 49.97934 8.47446 4001 ft 211 kts 189°
2026-05-06 20:11 49.96489 8.47184 4659 ft 208 kts 190°
2026-05-06 20:11 49.95074 8.46698 5152 ft 211 kts 199°
2026-05-06 20:11 49.93606 8.46008 5355 ft 231 kts 199°
2026-05-06 20:12 49.92064 8.45053 5504 ft 246 kts 215°
2026-05-06 20:12 49.90855 8.43117 5723 ft 257 kts 241°
2026-05-06 20:12 49.90339 8.40470 6224 ft 260 kts 266°
2026-05-06 20:12 49.90644 8.37697 6726 ft 266 kts 291°
2026-05-06 20:13 49.91695 8.35324 7243 ft 270 kts 309°
2026-05-06 20:13 49.92940 8.33121 7738 ft 273 kts 309°
2026-05-06 20:13 49.94185 8.30885 8295 ft 274 kts 308°
2026-05-06 20:13 49.95435 8.28624 8822 ft 277 kts 308°
2026-05-06 20:14 49.96692 8.26344 9354 ft 279 kts 308°
2026-05-06 20:14 49.97961 8.24041 9885 ft 282 kts 308°
2026-05-06 20:14 49.99259 8.21686 10146 ft 294 kts 309°
2026-05-06 20:14 50.00623 8.19212 10305 ft 309 kts 309°
2026-05-06 20:15 50.02056 8.16613 10438 ft 324 kts 309°
2026-05-06 20:15 50.03549 8.13907 10743 ft 332 kts 309°
2026-05-06 20:15 50.05057 8.11176 11219 ft 335 kts 309°
2026-05-06 20:15 50.06579 8.08414 11698 ft 338 kts 309°
2026-05-06 20:16 50.08118 8.05616 12169 ft 340 kts 309°
2026-05-06 20:16 50.09663 8.02805 12659 ft 343 kts 309°
2026-05-06 20:16 50.11222 7.99965 13125 ft 346 kts 309°
2026-05-06 20:16 50.12791 7.97101 13612 ft 349 kts 309°
2026-05-06 20:17 50.14351 7.94252 14054 ft 350 kts 309°
2026-05-06 20:17 50.15934 7.91359 14500 ft 352 kts 309°
2026-05-06 20:17 50.17528 7.88441 14949 ft 354 kts 309°
2026-05-06 20:17 50.19128 7.85511 15374 ft 356 kts 309°
2026-05-06 20:18 50.20740 7.82555 15818 ft 358 kts 309°
2026-05-06 20:18 50.22358 7.79584 16255 ft 360 kts 309°
2026-05-06 20:18 50.24002 7.76614 16667 ft 363 kts 312°
2026-05-06 20:18 50.25906 7.74001 17082 ft 367 kts 322°
2026-05-06 20:19 50.28109 7.71956 17513 ft 371 kts 333°
2026-05-06 20:19 50.30493 7.70360 17912 ft 374 kts 335°
2026-05-06 20:19 50.32894 7.68753 18321 ft 376 kts 334°
2026-05-06 20:19 50.35304 7.67114 18690 ft 378 kts 334°
2026-05-06 20:20 50.37726 7.65452 19064 ft 381 kts 334°
2026-05-06 20:20 50.40158 7.63778 19444 ft 383 kts 334°
2026-05-06 20:20 50.42605 7.62093 19825 ft 385 kts 334°
2026-05-06 20:20 50.45065 7.60399 20207 ft 387 kts 334°
2026-05-06 20:21 50.47541 7.58693 20569 ft 390 kts 334°
2026-05-06 20:21 50.50003 7.56994 20943 ft 392 kts 334°
2026-05-06 20:21 50.52508 7.55263 21304 ft 395 kts 334°
2026-05-06 20:21 50.55013 7.53469 21686 ft 396 kts 332°
2026-05-06 20:22 50.57421 7.51344 22050 ft 398 kts 326°
2026-05-06 20:22 50.59733 7.48949 22413 ft 400 kts 325°
2026-05-06 20:22 50.62069 7.46541 22815 ft 402 kts 325°
2026-05-06 20:22 50.64423 7.44137 23196 ft 405 kts 326°
2026-05-06 20:23 50.66791 7.41719 23570 ft 407 kts 326°
2026-05-06 20:23 50.69178 7.39276 23885 ft 409 kts 326°
2026-05-06 20:23 50.71569 7.36814 24217 ft 411 kts 324°
2026-05-06 20:23 50.73822 7.34020 24509 ft 412 kts 316°
2026-05-06 20:24 50.75810 7.30743 24820 ft 413 kts 308°
2026-05-06 20:24 50.77517 7.27080 25136 ft 414 kts 303°
2026-05-06 20:24 50.79169 7.23314 25432 ft 417 kts 303°
2026-05-06 20:24 50.80824 7.19599 25738 ft 419 kts 304°
2026-05-06 20:25 50.82515 7.15816 26049 ft 422 kts 304°
2026-05-06 20:25 50.84211 7.12016 26357 ft 424 kts 304°
2026-05-06 20:25 50.85916 7.08186 26648 ft 426 kts 304°
2026-05-06 20:25 50.87625 7.04339 26950 ft 428 kts 304°
2026-05-06 20:26 50.89343 7.00462 27249 ft 431 kts 303°
2026-05-06 20:26 50.91069 6.96562 27534 ft 433 kts 303°
2026-05-06 20:26 50.92801 6.92646 27825 ft 435 kts 303°
2026-05-06 20:26 50.94538 6.88713 28111 ft 437 kts 303°
2026-05-06 20:27 50.96283 6.84758 28397 ft 438 kts 303°
2026-05-06 20:27 50.98039 6.80770 28699 ft 440 kts 303°
2026-05-06 20:27 50.99795 6.76775 28991 ft 442 kts 303°